Temperature
15 15 15 16 19 20 21 21 21 20 20 20 19 20 22 22 22 21 17 16 16 16 16 16 16 16 16 16 16 16 16 16 16 16 16 16 16 16 16 16 16 15 15 15 15 15 15 15 16
14 15 15 17 20 20 21 21 20 21 20 18 18 19 20 20 18 17 16 16 16 16 16 15 16 16 16 15 16 16 16 16 16 16 16 16 16 16 16 16 16 15 15 15 15 15 15 15 15
14 14 16 18 19 21 22 20 20 19 18 18 19 18 19 19 16 16 16 16 16 16 15 15 15 15 15 15 15 16 16 16 16 16 16 16 16 16 16 16 16 15 15 15 15 15 15 15 15
13 14 16 18 19 20 20 20 19 19 18 17 18 19 17 16 15 16 17 16 15 15 15 15 15 15 15 15 15 15 15 16 15 15 15 15 15 15 15 15 15 15 15 15 15 15 15 15 15
13 16 17 18 19 19 19 18 17 19 19 18 18 19 18 15 16 16 16 16 15 15 15 15 15 15 15 15 15 15 15 15 15 15 15 15 15 15 15 15 15 15 15 15 15 15 15 15 15
14 16 18 18 19 18 18 17 17 19 19 18 18 19 17 16 16 16 16 15 15 15 15 15 15 15 15 15 15 15 15 15 15 15 15 15 15 15 15 15 15 15 15 15 15 15 15 15 15
15 16 17 18 19 18 18 16 17 19 19 18 17 18 17 15 16 16 15 15 14 14 14 14 14 15 15 15 15 15 15 15 15 15 15 15 15 15 15 15 15 15 15 15 15 15 15 15 15
14 16 16 17 18 18 17 16 16 17 18 16 16 18 18 15 15 15 15 14 14 14 14 14 14 14 14 14 14 15 15 15 15 15 15 15 15 15 14 14 14 15 15 15 15 15 15 14 14
12 15 16 17 17 18 16 16 15 14 15 15 15 15 15 15 15 15 14 14 14 14 14 14 14 14 14 14 14 14 15 15 15 15 15 15 14 14 14 14 14 14 14 14 14 14 14 14 14
13 15 16 17 17 17 16 16 16 15 16 15 14 14 15 15 14 14 14 14 14 14 14 14 14 14 14 14 14 14 14 14 14 14 14 14 14 14 14 14 14 14 14 14 14 14 14 14 14
13 15 15 15 14 14 15 15 14 16 16 16 15 14 14 14 14 14 14 14 14 14 14 14 13 13 13 14 13 14 14 14 14 14 14 14 14 14 14 14 14 14 14 13 14 14 14 13 13
13 14 13 14 13 13 14 14 14 14 15 14 14 14 14 13 13 13 14 13 13 13 13 13 13 13 13 13 13 13 13 14 14 14 14 14 14 14 14 14 14 14 13 13 13 13 13 13 13
13 13 12 12 12 12 13 13 14 13 13 13 13 13 13 13 13 13 13 13 13 13 13 13 13 13 13 13 13 13 13 13 13 14 14 13 13 13 13 13 13 13 13 13 13 13 13 13 13
13 12 12 12 12 12 12 13 12 13 12 12 12 12 12 12 13 12 13 13 13 13 13 13 13 13 13 13 13 13 13 13 13 13 13 13 13 13 13 13 13 13 13 13 13 13 13 13 13
11 12 12 12 12 12 12 13 13 13 12 12 12 12 12 12 12 12 12 13 13 13 13 13 13 13 13 13 13 13 13 13 13 13 13 13 13 13 13 13 13 13 13 13 13 12 12 12 12
11 12 12 13 12 12 12 14 15 12 12 12 12 11 11 11 11 12 12 12 12 12 12 13 13 13 13 13 12 12 12 12 12 12 12 12 12 12 12 12 12 13 13 12 12 12 12 12 12
11 12 13 13 12 12 12 13 14 11 11 12 12 11 11 11 11 11 12 12 12 12 12 12 12 12 12 12 12 12 12 12 12 12 12 12 12 12 12 12 12 12 12 12 12 12 12 11 12
12 12 12 13 12 11 11 12 13 11 11 11 12 11 11 11 11 11 11 12 12 12 12 12 12 12 12 11 11 11 11 11 11 12 11 11 12 12 12 12 12 12 12 12 12 11 11 11 11
12 12 12 12 12 11 11 11 12 12 11 11 11 11 11 10 10 10 11 11 11 11 11 11 11 11 11 11 11 11 11 11 11 11 11 11 11 11 11 11 11 11 11 11 11 11 11 11 11
10 10 11 11 10 10 11 11 11 12 11 11 11 11 11 10 10 10 10 11 11 11 11 11 11 11 11 11 11 11 11 11 11 11 11 11 11 11 11 11 11 11 11 11 11 11 11 11 11
9 9 10 10 10 10 10 11 11 11 11 10 10 10 10 9 9 9 10 10 11 11 11 11 11 11 11 10 10 10 10 10 10 10 10 10 10 10 10 10 10 10 10 10 11 11 10 10 10
8 9 10 9 9 10 10 11 12 11 11 10 10 10 9 9 9 9 9 10 10 10 10 11 10 10 10 10 10 10 10 10 10 10 10 10 10 10 10 10 10 10 10 10 10 10 10 10 10
8 9 9 9 9 9 10 10 11 10 10 10 10 9 9 8 8 8 9 9 10 10 10 10 10 10 10 10 10 10 10 9 9 9 9 9 9 10 9 9 9 10 10 10 10 10 10 10 10
7 8 8 8 8 8 10 10 11 10 10 10 10 8 8 7 7 7 8 8 9 9 9 9 10 10 10 10 9 9 9 9 9 9 9 9 9 9 9 9 9 9 9 9 9 10 10 9 9
7 7 7 7 7 9 10 9 10 10 9 9 9 8 7 6 6 6 7 7 8 8 9 9 9 9 9 9 9 9 9 9 9 9 9 9 9 9 9 9 9 9 9 9 9 9 9 9 9
6 7 8 8 9 9 9 9 9 8 8 7 6 6 6 5 5 5 6 6 7 8 8 8 8 8 9 9 9 9 8 8 8 8 8 8 8 8 8 8 8 8 8 8 8 8 8 8 8
6 6 7 8 8 8 8 8 8 7 7 6 6 6 5 5 4 4 5 6 6 7 7 7 8 7 8 8 8 8 8 8 8 8 8 8 8 8 8 8 8 8 8 8 8 8 8 8 8
6 6 6 6 7 7 8 8 9 7 6 6 6 6 5 4 4 4 4 5 6 6 6 7 7 7 7 7 7 8 7 7 7 7 7 7 7 7 7 7 7 7 7 7 7 7 7 7 7
4 5 5 6 7 7 8 8 7 7 6 6 6 5 4 4 3 3 4 4 5 5 5 6 6 6 6 7 7 7 7 7 7 7 7 7 7 7 7 7 7 7 7 7 7 6 7 7 7
4 4 4 5 5 6 7 7 5 6 5 5 4 4 3 3 2 2 3 3 4 4 5 5 5 5 6 6 6 6 6 6 6 6 6 6 6 6 6 6 6 6 6 6 6 6 6 6 6
Wind_Speed
1 1 2 3 5 5 10 7 5 5 5 4 3 4 5 5 3 1 4 6 9 11 12 13 12 11 11 11 11 10 10 11 12 13 13 12 12 12 12 12 12 12 12 12 12 12 12 13 13
0 2 3 4 6 9 8 8 9 7 3 3 4 4 4 4 1 3 4 6 9 11 11 12 12 11 11 11 10 10 10 10 10 12 12 12 12 11 11 12 12 12 12 12 12 12 12 12 12
2 1 4 5 7 10 7 5 7 5 4 4 4 4 3 2 2 3 5 8 9 10 10 12 12 11 11 11 10 9 9 9 9 10 11 11 11 11 11 11 12 11 11 12 12 13 12 12 12
3 3 3 7 13 11 6 3 4 6 5 5 5 4 2 1 1 3 7 9 10 10 10 12 12 11 11 10 9 9 9 9 9 9 10 10 10 11 11 11 11 11 11 12 12 12 12 11 11
2 4 7 10 13 8 7 5 4 7 6 6 6 4 3 3 2 5 8 10 10 10 9 11 11 10 10 10 9 9 8 8 8 8 9 9 10 10 11 11 11 11 11 11 11 11 11 11 10
5 5 8 13 13 8 7 7 6 8 7 6 6 5 3 3 4 6 8 9 9 9 9 10 10 10 10 9 9 8 8 8 8 8 8 8 9 9 10 11 11 11 11 11 11 11 11 10 10
6 6 9 11 11 10 7 7 9 9 10 7 5 5 4 4 4 6 8 8 9 8 8 8 10 10 9 9 9 8 8 7 7 7 7 7 8 8 9 10 10 11 11 11 11 11 10 10 10
4 5 8 9 11 10 6 6 5 9 8 4 5 6 4 5 7 7 7 8 8 7 7 7 8 8 9 9 8 8 7 7 7 6 7 7 8 8 9 10 10 10 11 11 11 11 10 10 10
5 8 12 10 9 7 6 7 5 3 4 4 4 2 1 7 9 9 7 7 7 7 7 7 7 7 7 8 8 8 7 7 7 7 8 7 8 8 9 9 10 10 10 11 12 12 11 10 10
8 11 13 7 7 5 6 7 6 6 7 7 5 3 4 8 10 11 10 10 10 9 8 7 7 7 7 7 7 7 7 7 7 7 8 7 6 6 7 9 10 10 10 11 11 12 11 9 8
9 12 10 8 7 5 5 6 5 7 9 10 10 9 8 9 10 11 11 11 10 9 8 7 7 7 7 6 6 6 6 6 7 7 7 6 6 6 6 7 9 9 10 9 10 10 9 7 6
9 12 9 7 7 6 7 5 6 10 8 3 5 6 9 10 11 11 11 10 9 8 8 7 6 7 7 7 6 6 6 6 6 7 7 7 5 5 5 5 7 7 7 8 8 7 8 8 7
15 10 9 9 7 8 8 9 8 10 9 4 3 6 9 10 11 10 9 8 8 9 8 8 7 7 7 6 6 6 6 6 7 7 7 7 5 5 5 5 5 6 6 7 7 7 8 7 7
10 12 10 9 10 8 10 12 9 12 8 7 7 8 9 10 10 9 9 9 9 9 8 8 8 8 8 7 6 6 6 6 7 7 7 8 7 6 5 5 5 5 6 6 6 7 7 6 5
7 9 11 11 12 8 7 13 16 14 9 9 9 9 9 9 9 10 10 10 10 9 8 8 8 8 8 8 7 6 6 6 6 6 8 8 7 7 6 5 5 5 6 6 6 6 6 5 5
8 10 12 10 10 9 10 16 12 9 11 12 11 10 10 10 10 10 9 9 9 8 8 8 7 8 8 7 6 5 6 6 6 6 7 8 8 8 7 5 5 6 6 6 5 5 5 5 5
10 14 16 11 10 9 12 13 8 6 9 11 11 10 10 10 10 10 10 10 9 9 8 8 8 8 8 7 6 5 5 5 5 5 5 7 8 8 7 5 5 7 6 5 5 5 5 5 5
14 15 15 14 8 11 13 15 9 7 9 11 11 10 10 10 11 9 9 9 9 8 8 8 8 8 7 6 5 4 4 4 4 4 5 6 7 8 7 6 6 7 6 5 6 6 5 5 5
12 14 16 12 7 10 15 16 14 11 10 11 11 10 11 11 9 8 8 8 8 8 8 9 8 8 7 6 6 5 5 5 4 4 5 6 6 7 7 6 6 6 6 6 7 6 6 5 5
15 15 15 9 6 8 11 15 14 13 13 12 12 12 11 9 8 7 7 8 9 9 9 9 9 9 9 7 6 5 5 4 5 4 5 6 6 7 7 7 6 6 6 7 7 7 5 5 5
19 19 16 10 6 8 8 12 13 11 11 11 11 11 10 9 8 7 7 8 9 9 10 9 10 9 9 8 6 5 4 3 4 5 5 5 6 7 6 7 6 6 6 6 7 7 7 6 6
18 17 15 12 9 8 8 9 9 9 9 9 10 9 8 7 7 7 7 7 8 8 8 9 9 9 9 9 8 9 7 6 7 6 5 5 6 7 7 6 6 6 5 6 7 7 6 8 7
10 9 14 14 13 10 10 9 7 6 8 8 7 7 6 6 6 5 5 6 6 6 7 8 8 9 9 10 10 10 8 7 6 6 6 6 5 6 6 7 6 6 5 6 6 6 6 6 7
7 6 7 9 9 13 16 13 9 7 8 6 4 4 3 3 3 3 2 3 3 4 5 6 8 8 9 10 10 11 10 9 8 7 7 6 5 5 6 6 6 6 5 6 6 5 6 6 6
9 7 7 9 10 12 12 11 8 3 3 4 3 2 1 1 2 2 2 2 2 3 4 6 7 8 8 9 10 10 10 10 9 8 8 7 5 5 6 6 6 5 5 5 5 5 5 6 6
14 13 10 9 10 8 9 11 4 1 0 1 0 0 1 1 1 1 1 1 2 2 3 5 7 7 8 9 9 9 9 8 7 8 7 7 6 5 6 6 5 5 5 5 5 4 4 4 4
9 12 10 6 4 6 7 5 3 1 2 2 2 2 2 2 1 1 1 0 1 2 2 3 5 6 7 8 8 8 8 8 7 7 7 6 5 5 6 6 5 5 4 5 5 4 4 4 3
5 7 6 7 7 8 8 9 5 4 2 2 2 3 3 3 3 2 1 1 1 1 1 2 3 4 5 7 7 6 7 8 7 7 7 7 7 6 6 6 6 5 5 5 4 4 4 4 3
4 6 5 7 7 7 7 4 1 2 2 1 1 3 4 4 3 2 2 1 2 2 2 1 1 2 3 5 6 6 6 7 7 7 7 7 6 7 7 6 6 6 5 5 5 5 5 4 4
5 5 5 7 6 8 7 3 3 3 3 2 3 4 5 5 4 2 2 2 2 2 1 1 1 1 2 4 5 5 6 6 7 7 7 7 7 6 6 6 6 6 6 6 6 6 5 5 5
Wind_Direction
345 264 219 207 203 221 232 219 213 190 198 199 191 203 212 209 212 86 88 143 144 148 149 151 146 142 140 140 141 141 142 142 145 146 145 144 143 140 139 137 133 128 125 124 123 119 115 112 109
255 208 200 206 221 224 227 216 211 202 166 158 185 205 209 212 20 88 130 145 149 147 148 150 142 140 136 134 136 140 144 144 145 148 149 149 148 145 143 141 135 129 127 125 123 121 119 117 114
160 236 204 203 222 230 226 200 209 191 187 191 186 208 223 185 137 131 131 150 151 147 148 142 142 142 137 134 134 139 141 143 147 149 151 153 153 150 147 144 138 133 129 127 125 124 121 120 118
191 180 203 224 227 230 235 179 175 188 191 210 207 189 181 70 109 123 139 153 153 150 148 143 143 143 141 138 137 138 143 144 146 149 152 156 156 152 148 144 141 137 134 131 129 127 125 123 122
203 202 210 226 233 229 230 227 204 200 192 195 206 206 173 126 107 135 149 156 157 153 150 147 147 145 144 144 144 143 146 148 149 150 151 154 154 150 149 147 146 145 143 139 136 134 132 130 127
189 209 222 229 228 227 226 217 213 219 208 194 206 214 182 127 139 145 152 157 157 155 153 152 150 150 149 146 144 145 148 149 151 154 152 151 154 152 150 149 151 151 150 147 143 142 138 133 131
210 213 233 237 235 230 222 201 214 217 213 204 203 209 180 160 152 149 153 156 156 155 157 159 162 159 155 149 144 145 149 149 148 153 155 153 153 156 153 153 153 156 156 152 148 144 142 139 136
221 224 233 231 233 232 204 192 216 221 222 192 201 215 193 161 153 148 148 155 158 161 166 166 167 166 166 161 149 150 153 152 147 144 144 150 155 156 158 159 157 159 160 157 152 148 145 141 138
200 227 232 225 225 224 188 196 195 207 202 191 208 236 89 136 148 148 152 162 167 171 175 173 172 171 171 170 161 161 158 154 157 154 146 158 171 170 169 162 156 160 160 158 154 149 146 144 141
204 228 233 225 220 214 190 206 194 194 207 209 206 195 153 158 166 169 175 179 181 181 181 181 181 176 174 172 170 174 176 175 181 175 170 174 173 171 167 153 153 157 157 157 154 153 154 162 156
210 232 236 225 221 221 207 214 212 216 223 223 213 194 174 175 182 187 189 190 190 187 182 185 187 180 178 176 177 178 181 182 185 180 178 176 174 167 168 163 162 162 165 166 162 168 171 171 164
221 233 232 230 213 218 223 219 220 227 237 243 219 187 178 186 192 196 198 197 193 191 189 188 189 187 186 184 182 183 184 185 184 182 182 181 177 175 173 173 172 173 175 172 174 176 174 174 170
225 231 229 234 230 231 234 235 243 246 245 244 215 195 197 199 202 206 204 199 194 194 194 194 193 192 189 186 186 186 189 190 185 182 186 188 183 181 178 177 176 178 176 178 178 176 175 177 174
228 233 237 237 232 231 233 246 244 249 238 226 216 215 213 210 208 206 205 203 200 199 197 196 196 195 190 188 188 188 187 187 189 186 189 192 190 186 183 183 181 180 181 182 182 178 177 178 176
223 233 241 234 226 222 223 247 237 243 226 225 223 222 222 220 213 210 207 206 204 203 198 197 196 195 192 193 191 189 187 188 191 191 193 193 193 190 187 187 185 181 181 180 179 176 177 174 174
211 226 236 223 211 208 210 244 239 227 218 228 231 228 227 225 220 217 213 210 206 202 200 198 195 194 192 190 189 188 188 190 193 192 194 194 194 193 191 190 188 181 178 178 179 179 177 177 178
212 227 231 225 204 200 213 246 244 209 214 229 233 232 230 229 226 223 218 214 207 203 199 197 197 196 191 186 180 182 185 190 195 193 196 196 195 195 194 195 188 181 178 179 179 183 181 179 176
217 224 228 226 203 207 221 240 243 229 228 238 241 238 232 230 230 223 218 214 209 205 201 198 196 197 192 185 180 180 187 192 197 195 199 196 196 196 196 193 190 185 181 181 181 180 181 181 172
234 229 233 233 210 215 232 244 249 247 244 244 243 241 236 233 233 224 214 207 204 203 200 196 193 192 186 184 186 188 195 195 198 198 197 198 197 196 197 191 190 191 189 185 183 178 177 176 167
229 232 237 239 218 223 244 252 254 249 244 245 245 241 237 232 226 216 206 199 198 199 199 197 195 190 187 187 186 190 191 198 199 192 194 197 196 196 199 193 191 190 189 186 185 179 178 181 184
226 229 231 234 226 230 250 257 242 240 236 240 243 243 240 232 225 215 202 200 196 197 197 196 195 192 190 186 179 169 171 184 194 196 199 201 198 196 198 197 193 191 191 191 189 186 186 187 193
233 230 233 226 220 228 221 256 240 226 229 232 237 237 237 232 225 216 202 197 198 198 194 194 193 191 189 185 184 182 184 191 202 201 199 196 194 195 195 195 193 191 191 192 192 192 196 195 195
234 225 224 225 229 240 226 243 250 209 227 233 235 233 231 228 217 209 203 200 200 196 192 193 191 190 189 188 190 192 197 198 193 191 193 195 193 191 189 190 190 193 194 193 190 188 195 201 203
210 188 203 218 222 233 227 226 251 218 229 228 225 221 222 212 195 189 184 180 189 186 187 189 189 191 190 192 193 195 195 192 185 187 191 194 191 188 187 189 190 193 194 193 191 190 194 198 203
201 191 196 203 213 230 211 217 243 228 222 226 227 224 219 175 171 167 168 171 173 180 186 189 192 193 191 193 197 199 198 194 192 192 194 193 191 189 190 189 191 191 191 188 185 192 195 196 196
206 206 211 215 220 223 197 218 217 175 189 186 170 74 57 79 101 126 170 183 176 178 186 192 198 198 196 196 198 198 198 197 197 195 194 195 195 193 189 189 187 184 186 184 182 185 190 196 199
205 213 228 244 233 221 208 207 221 150 83 93 87 59 35 31 34 39 44 101 154 158 180 195 202 202 200 198 197 198 197 196 193 191 192 193 193 190 187 185 185 185 185 183 182 184 182 180 186
231 209 212 215 215 224 219 219 214 175 154 96 67 38 22 15 13 18 22 50 90 113 135 173 192 201 200 196 195 196 197 195 190 187 188 187 187 186 183 182 183 186 186 187 188 187 184 182 183
205 202 217 216 230 228 225 214 78 156 134 101 36 21 10 10 7 8 19 46 67 77 96 123 177 186 186 191 193 194 194 192 190 187 188 186 184 184 183 183 183 184 186 189 190 190 184 179 178
211 209 211 211 212 226 233 214 66 38 62 58 33 19 14 13 10 22 40 53 59 57 83 119 148 178 188 189 190 193 190 187 187 186 185 184 184 184 183 184 186 188 188 189 188 186 184 184 184
Height
1513 1514 1517 1520 1519 1515 1508 1504 1505 1508 1509 1510 1511 1511 1509 1509 1511 1516 1516 1514 1516 1519 1521 1524 1526 1529 1531 1532 1534 1536 1537 1539 1540 1541 1542 1544 1545 1546 1546 1547 1548 1549 1550 1550 1551 1551 1552 1552 1553
1513 1515 1519 1519 1513 1510 1504 1502 1505 1505 1508 1511 1512 1512 1511 1511 1513 1513 1512 1513 1516 1519 1521 1524 1526 1528 1530 1532 1534 1535 1537 1539 1540 1541 1543 1544 1545 1546 1547 1548 1549 1549 1550 1551 1551 1552 1553 1553 1554
1513 1515 1518 1514 1508 1502 1499 1501 1502 1507 1509 1510 1511 1511 1511 1511 1512 1512 1512 1513 1516 1519 1521 1523 1526 1528 1530 1532 1534 1535 1537 1538 1540 1541 1543 1544 1545 1546 1547 1548 1549 1550 1551 1551 1552 1553 1554 1554 1555
1514 1517 1517 1512 1504 1500 1499 1501 1505 1506 1509 1510 1510 1510 1511 1511 1511 1511 1511 1513 1516 1518 1521 1523 1526 1528 1530 1532 1533 1535 1537 1538 1540 1541 1542 1544 1545 1546 1547 1548 1549 1550 1551 1552 1553 1554 1554 1555 1556
1514 1515 1511 1506 1501 1500 1502 1504 1506 1505 1506 1507 1509 1507 1509 1509 1509 1510 1511 1513 1516 1518 1520 1523 1525 1527 1529 1531 1533 1534 1536 1537 1539 1540 1542 1543 1545 1546 1547 1548 1549 1550 1551 1552 1553 1554 1555 1556 1557
1514 1512 1506 1500 1497 1499 1501 1504 1505 1504 1505 1507 1508 1507 1508 1508 1508 1510 1511 1513 1516 1518 1520 1522 1524 1526 1529 1530 1532 1533 1535 1537 1538 1540 1541 1543 1544 1546 1547 1548 1549 1550 1551 1552 1553 1555 1555 1556 1557
1512 1508 1500 1496 1495 1497 1499 1502 1502 1501 1502 1505 1506 1506 1507 1507 1508 1509 1511 1513 1515 1517 1519 1521 1523 1525 1527 1529 1531 1532 1534 1535 1537 1539 1540 1542 1544 1545 1546 1548 1549 1550 1551 1552 1554 1555 1556 1557 1557
1509 1507 1500 1497 1495 1494 1497 1500 1500 1501 1501 1503 1505 1504 1505 1506 1506 1508 1510 1512 1514 1516 1518 1520 1522 1524 1526 1528 1529 1531 1533 1534 1536 1538 1539 1541 1543 1544 1546 1547 1548 1550 1551 1552 1553 1554 1556 1557 1558
1508 1506 1496 1493 1494 1492 1496 1498 1499 1500 1501 1501 1502 1503 1503 1504 1505 1507 1509 1511 1513 1515 1517 1519 1521 1522 1524 1526 1527 1529 1531 1533 1535 1536 1538 1540 1541 1543 1544 1546 1547 1549 1550 1552 1553 1554 1555 1556 1557
1505 1498 1490 1491 1493 1493 1495 1496 1497 1498 1498 1499 1500 1500 1501 1502 1504 1505 1507 1508 1510 1512 1515 1516 1519 1520 1522 1524 1526 1527 1529 1531 1533 1534 1536 1538 1540 1541 1543 1545 1546 1548 1550 1551 1552 1554 1555 1556 1557
1498 1491 1490 1493 1494 1495 1495 1496 1496 1496 1495 1495 1497 1498 1499 1501 1502 1504 1505 1507 1509 1511 1513 1514 1517 1518 1520 1522 1524 1526 1527 1529 1531 1532 1534 1536 1538 1540 1541 1543 1545 1547 1548 1550 1551 1553 1554 1555 1557
1493 1490 1492 1491 1493 1494 1494 1494 1494 1494 1493 1494 1495 1496 1497 1498 1500 1501 1503 1505 1507 1509 1511 1513 1515 1516 1518 1520 1522 1524 1525 1527 1528 1530 1532 1534 1536 1538 1539 1541 1543 1545 1546 1548 1550 1551 1553 1554 1556
1490 1488 1490 1491 1492 1492 1493 1492 1492 1491 1492 1492 1492 1493 1494 1495 1497 1499 1501 1503 1504 1506 1508 1510 1512 1514 1516 1518 1520 1522 1523 1525 1526 1528 1530 1532 1534 1536 1537 1539 1541 1543 1545 1547 1548 1550 1551 1553 1555
1486 1487 1488 1488 1489 1490 1490 1489 1490 1486 1489 1489 1490 1490 1491 1493 1494 1496 1497 1499 1501 1503 1505 1508 1510 1512 1514 1516 1518 1519 1521 1522 1524 1526 1527 1529 1531 1533 1535 1537 1539 1541 1543 1545 1547 1548 1550 1552 1553
1486 1486 1484 1484 1485 1486 1488 1485 1482 1483 1486 1486 1487 1488 1489 1489 1491 1492 1494 1496 1498 1500 1502 1504 1507 1509 1511 1513 1515 1517 1518 1520 1522 1523 1525 1527 1529 1531 1533 1535 1537 1539 1541 1542 1545 1547 1548 1550 1552
1483 1481 1477 1475 1480 1482 1486 1474 1474 1479 1482 1482 1483 1485 1485 1486 1487 1489 1491 1493 1495 1497 1499 1501 1503 1506 1508 1510 1512 1514 1516 1517 1519 1520 1522 1524 1526 1528 1530 1532 1534 1536 1538 1540 1542 1544 1546 1548 1550
1476 1471 1467 1470 1475 1478 1478 1470 1472 1476 1478 1478 1479 1481 1482 1483 1484 1485 1487 1489 1491 1493 1495 1497 1500 1502 1504 1507 1509 1511 1513 1514 1516 1517 1519 1521 1523 1525 1527 1529 1531 1534 1536 1538 1540 1542 1544 1546 1548
1463 1464 1464 1465 1470 1474 1473 1469 1471 1473 1475 1475 1475 1477 1478 1478 1479 1481 1483 1485 1487 1489 1492 1494 1496 1498 1501 1503 1505 1508 1509 1511 1513 1514 1516 1518 1520 1522 1524 1526 1528 1531 1533 1535 1537 1540 1542 1544 1546
1461 1461 1461 1463 1468 1471 1468 1467 1467 1470 1471 1471 1471 1472 1473 1474 1476 1477 1479 1480 1483 1485 1487 1490 1492 1495 1497 1499 1501 1503 1506 1508 1509 1511 1513 1515 1517 1519 1521 1523 1525 1527 1530 1532 1534 1536 1539 1541 1544
1463 1462 1461 1464 1469 1469 1465 1464 1464 1465 1466 1467 1467 1467 1468 1470 1472 1473 1474 1476 1478 1480 1483 1486 1488 1491 1493 1496 1498 1501 1503 1505 1506 1508 1510 1512 1514 1516 1518 1520 1522 1524 1526 1529 1531 1533 1535 1538 1541
1461 1460 1460 1463 1467 1467 1466 1459 1457 1458 1461 1462 1463 1463 1464 1466 1467 1468 1470 1471 1473 1476 1478 1481 1484 1487 1490 1493 1495 1497 1499 1501 1503 1504 1506 1508 1510 1512 1514 1516 1519 1521 1523 1525 1527 1530 1532 1534 1537
1456 1457 1460 1463 1464 1460 1463 1453 1448 1452 1455 1457 1458 1459 1460 1461 1463 1464 1465 1467 1469 1472 1475 1477 1480 1483 1486 1489 1491 1493 1495 1496 1499 1501 1503 1505 1507 1509 1511 1513 1515 1517 1520 1522 1524 1526 1529 1531 1533
1454 1457 1459 1461 1460 1459 1458 1457 1444 1449 1451 1451 1453 1455 1456 1458 1459 1460 1462 1464 1466 1469 1471 1474 1477 1480 1482 1485 1487 1490 1492 1494 1496 1498 1500 1502 1504 1506 1508 1510 1512 1514 1516 1518 1521 1523 1525 1527 1530
1456 1458 1459 1459 1459 1458 1448 1451 1441 1444 1445 1447 1451 1453 1454 1455 1456 1457 1459 1461 1463 1465 1467 1470 1473 1475 1478 1481 1483 1485 1488 1490 1493 1495 1496 1499 1500 1502 1504 1506 1509 1511 1513 1515 1517 1519 1521 1523 1526
1453 1453 1455 1455 1452 1442 1439 1445 1441 1443 1445 1447 1449 1451 1452 1453 1454 1455 1456 1458 1459 1461 1464 1466 1469 1471 1474 1476 1479 1481 1484 1486 1489 1491 1493 1495 1497 1499 1501 1503 1505 1507 1509 1511 1513 1516 1518 1520 1522
1447 1446 1442 1440 1435 1432 1441 1439 1440 1445 1447 1448 1450 1451 1451 1452 1452 1453 1454 1455 1457 1458 1460 1462 1465 1467 1469 1472 1474 1477 1480 1483 1485 1488 1490 1492 1494 1496 1498 1500 1502 1504 1507 1508 1510 1512 1514 1516 1518
1446 1445 1442 1441 1437 1437 1435 1438 1444 1446 1447 1448 1449 1450 1450 1451 1451 1452 1452 1453 1455 1456 1457 1459 1461 1463 1465 1468 1471 1473 1476 1479 1481 1484 1486 1488 1490 1492 1495 1497 1499 1501 1503 1505 1507 1509 1511 1513 1515
1446 1444 1445 1443 1439 1433 1429 1432 1433 1442 1445 1447 1449 1450 1450 1451 1450 1450 1451 1451 1453 1454 1455 1457 1458 1460 1462 1464 1467 1470 1472 1475 1478 1480 1482 1484 1487 1489 1491 1494 1496 1498 1500 1502 1504 1505 1507 1509 1511
1448 1447 1444 1439 1435 1429 1429 1433 1440 1442 1446 1448 1449 1450 1451 1451 1450 1450 1450 1450 1451 1452 1453 1455 1456 1457 1459 1461 1463 1466 1469 1471 1474 1476 1479 1481 1483 1486 1488 1490 1493 1495 1497 1499 1500 1502 1504 1506 1508
1447 1447 1446 1442 1439 1434 1429 1440 1445 1445 1447 1449 1450 1451 1451 1451 1450 1450 1449 1449 1450 1451 1452 1453 1454 1455 1457 1458 1461 1463 1465 1468 1470 1472 1475 1478 1480 1483 1485 1487 1489 1491 1494 1495 1497 1499 1501 1502 1504